TITAN 3C TRANSTAGE R/B, 1863

Orbit data source: Space-Track

TITAN 3C TRANSTAGE R/B, 1863 is space debris in HEO originally from a launch on Tue, 21 Dec 1965 UTC launched from the Air Force Eastern Test Range (AFETR). Debris objects in space refer to the collection of defunct objects orbiting the Earth. Examples of debris include non-operational satellites, rocket bodies, and fragments generated from explosions, collisions, or faulty payload assembly.

Loading next visibility...
Identifier
1863, 1965-108A
Orbit
HEO
Last TLE update
1 day ago
Origin
Manufacturer
Martin Marietta
Mission
Spacecraft
Bus & Motor
TRANSTAGE, Unknown motor
Mass
~2,050 kg wet, 1,950 kg dry
Launch date (UTC)
1965-12-21 (59 years ago)
Launch vehicle
Unknown
Launch site
Air Force Eastern Test Range (AFETR)
Object type
Payload
Rocket body
Debris
Shape & HBR
Cyl + 2 Nozzle, 4.6 m
Radar Cross Section
14.974 m², Large (>1 m²)

Expand to show TLE details & history

TLE from 1 day ago
0 TITAN 3C TRANSTAGE R/B
1 01863U 65108A   25169.10829833  .00002341  00000-0  11397-2 0  9998
2 01863  26.7164 127.9799 6019705  28.8043 354.0336  3.95964706353849
Epoch: 2025-06-18T02:35Z
TLE epoch observation values (Epoch: 2025-06-18T02:35:56.975Z)
Latitude
-0.00003°
Longitude
-177.62787°
Altitude
668.679 km
Speed
9.461 km/s
True Right ascension
08h 31m 49s
True Declination
0° 00' 00"
Sunlit
Object was in daylight at epoch
Visualization orbit readout
Latitude
6.96986°
Longitude
-164.38635°
Altitude
422.395 km
Speed
9.675 km/s
Apparent Right ascension
06h 30m 32s
Apparent Declination
-26° 49' 58"
Sunlit
Object is in daylight
Visualization observer readout
Local Sidereal Time
13:43:33
Azimuth
258.862° W
Elevation
-30.268°
Doppler factor
1
Orbital elements
Apogee altitude
20,664.199 km
Perigee altitude
340.868 km
Semi-major axis
16,880.671 km
Eccentricity
0.60197
Inclination
26.7164°
RAAN
127.9799°
Arg. of periapsis
28.8043°
True anomaly
Unknown
Mean anomaly
354.0336°
Eccentric anomaly
Unknown
Mean motion
0.9896 °/min
Orbital period
363.78 mins
BSTAR
0.0011397
Loading maneuver chart data...
Loading SW <> Apogee altitude chart data...

TITAN 3C TRANSTAGE R/B Visibility forecast

Observer location: undefined°, undefined°

Span
Click to sort rows by Start time (UTC) header in descending order
Start Az.
Max El. time (UTC)
Max El. Az.
Max El.
End time (UTC)
End Az.
31 mins2025-06-19 03:04:39.698Z225.572° WSW2025-06-19 03:10:39.698Z151.763° SSE31.81°2025-06-19 03:35:39.698Z100.026° ESE
242 mins2025-06-19 09:29:39.698Z259.743° W2025-06-19 10:11:39.698Z212.089° SW30.315°2025-06-19 13:31:39.698Z179.515° S
|